Regional Weather Roundup
Issued by NWS

Home | Current Version | Previous Version | Text Only | Print | Product List | Glossary On
Versions: 1 2 3 4 5 6 7 8 9 10 11 12 13 14 15 16 17 18 19 20 21 22 23 24 25 26 27
000
ASUS45 KSLC 200510
RWRUT

UTAH REGIONAL WEATHER ROUNDUP
NATIONAL WEATHER SERVICE SALT LAKE CITY UT
1100 PM MDT SAT JUN 19 2021

UTZ101>105-107>111-200600-

NORTHERN UTAH

CITY           SKY/WX    TMP DP  RH WIND       PRES   REMARKS
BRIGHAM CITY   CLEAR     85  24  11 N15       29.86S
HILL AFB       CLEAR     84  33  16 N13       29.88R
LOGAN          CLEAR     75  39  27 CALM      29.88R
OGDEN          CLEAR     85  36  17 N8        29.86R
SALT LAKE CITY PTCLDY    83  38  20 N9        29.83R
TOOELE VALLEY  PTCLDY    77  50  38 NE5       29.86R
WENDOVER       CLEAR     87  36  16 N10       29.86R
HEBER CITY       N/A     61  37  41 CALM      29.95R
WEST JORDAN    CLEAR     81  48  30 NW9       29.88R

$$

UTZ024>027-106-112>120-200600-

CENTRAL/NORTHEAST UTAH

CITY           SKY/WX    TMP DP  RH WIND       PRES   REMARKS
PROVO AIRPORT  CLEAR     75  53  46 CALM      29.86R
MOAB/CANYONLAN PTCLDY    80  40  23 N3        29.87R
DELTA          PTCLDY    77  30  18 S13       29.89R
MANTI            N/A     68  35  29 CALM      29.97R
PRICE          CLEAR     76  36  23 NE8       29.99R
RICHFIELD      CLEAR     70  41  35 SW3       29.95S
ROOSEVELT      CLEAR     68  36  30 SW3       29.93R
DUCHESNE       CLEAR     75  34  22 SW6       29.98R
VERNAL         CLEAR     71  42  35 W6        29.92R

$$

UTZ121>131-200600-

SOUTHERN UTAH

CITY           SKY/WX    TMP DP  RH WIND       PRES   REMARKS
BRYCE CANYON   MOCLDY    60  29  30 SW7       30.19R
CEDAR CITY     MOCLDY    82  30  15 SE10      29.99R
MILFORD        PTCLDY    74  30  19 W5        29.91R
PANGUITCH        N/A     73  30  20 CALM      30.13R
ST GEORGE      CLEAR     95  36  12 E3        29.72R HX  90
HANKSVILLE     PTCLDY    82  39  21 CALM      29.90
KANAB            N/A     84  34  16 CALM      29.96R
BLANDING         N/A     77  35  21 NE12      30.08R

$$

REGIONAL REPORTS     COLORADO/ARIZONA

CITY           SKY/WX    TMP DP  RH WIND       PRES   REMARKS
CRAIG, CO      CLEAR     56  45  66 SE5       30.01R
GRAND JUNCTION CLEAR     73  39  29 E3        29.92S
RIFLE, CO      CLEAR     67  44  43 SE8       30.01R
MONTROSE, CO   MOCLDY    71  47  42 SE8       30.04R
CORTEZ, CO     CLEAR     66  42  41 NE5       30.03R
COLORADO CITY    N/A     75  32  20 SE3       29.96R
PAGE, AZ       PTCLDY    90  37  15 S3        29.86R
GRAND CANYON   MOCLDY    70  36  28 E3        30.13R
KINGMAN, AZ    PTCLDY    93  41  16 S9        29.81R
FLAGSTAFF, AZ  MOCLDY    73  36  25 CALM      30.17R

$$

REGIONAL REPORTS    NEVADA/IDAHO/WYOMING

CITY           SKY/WX    TMP DP  RH WIND       PRES   REMARKS
LAS VEGAS, NV  CLEAR    104  35   9 SW7       29.66R HX  98
ELY, NY        PTCLDY    70  23  17 W9        30.05R
ELKO, NV       CLEAR     79  27  14 CALM      29.96R
POCATELLO, ID  CLEAR     74  38  27 SW14      29.86R
BURLEY, ID     CLEAR     71  46  40 SW12      29.88R
EVANSTON, WY   CLEAR     69  26  20 NW10      30.08R
ROCK SPRINGS,  CLEAR     69  20  15 W7        30.01R

$$



USA.gov is the U.S. government's official web portal to all federal, state and local government web resources and services.